Weather History for Boonville, MO

Change the Weather History Date:

Tuesday, December 11, 2012

  Actual Average Record
Temperature  
Mean Temperature 29 °F -  
Max Temperature 42 °F 44 °F 68 °F (1965)
Min Temperature 16 °F 24 °F 3 °F (1962)
Degree Days  
Heating Degree Days 36    
Moisture  
Dew Point 17 °F    
Average Humidity 63    
Maximum Humidity 89    
Minimum Humidity 37    
Precipitation  
Precipitation 0.00 in - - ()
Sea Level Pressure  
Sea Level Pressure 30.09 in    
Wind  
Wind Speed 5 mph (SSW)    
Max Wind Speed 8 mph    
Max Gust Speed -    
Visibility 10 miles    
Events      
Averages and records for this station are not official NWS values.
T = Trace of Precipitation, MM = Missing Value Source: NWS Daily Summary

Daily Weather History Graph

Daily Weather History Graph

Search for Another Location

Airport:

Trip Planner

Search our weather history database for the weather conditions in past years. The results will help you decide how hot, cold, wet, or windy it might be!

Date:

Astronomy

Dec. 11, 2012 Rise Set
Actual Time 7:19 AM CST 4:48 PM CST
Civil Twilight 6:49 AM CST 5:18 PM CST
Nautical Twilight 6:16 AM CST 5:52 PM CST
Astronomical Twilight 5:44 AM CST 6:24 PM CST
Moon 5:15 AM CST (12/11) 3:27 PM CST (12/11)
Length of Visible Light 10h 28m
Length of Day
9h 29m
Waning Crescent, 4% of the Moon is Illuminated
Dec 11
Waning Crescent
Dec 13
New
Dec 19
First Quarter
Dec 28
Full
Jan 4
Last Quarter

Hourly Weather History & Observations

Time (CST) Temp. Windchill Dew Point Humidity Pressure Visibility Wind Dir Wind Speed Gust Speed Precip Events Conditions
12:15 AM 18.5 °F 11.7 °F 15.4 °F 88% 30.06 in 10.0 mi South 4.6 mph - N/A   Clear
12:35 AM 18.0 °F 9.8 °F 14.9 °F 88% 30.05 in 10.0 mi SSE 5.8 mph - N/A   Clear
12:55 AM 17.4 °F 9.1 °F 14.7 °F 89% 30.05 in 10.0 mi SSE 5.8 mph - N/A   Clear
1:15 AM 17.2 °F 8.9 °F 14.4 °F 88% 30.05 in 10.0 mi SSE 5.8 mph - N/A   Clear
1:35 AM 16.9 °F 9.8 °F 13.8 °F 88% 30.05 in 10.0 mi South 4.6 mph - N/A   Clear
1:55 AM 17.2 °F 10.2 °F 14.0 °F 87% 30.05 in 10.0 mi South 4.6 mph - N/A   Clear
2:15 AM 17.2 °F 8.9 °F 13.8 °F 86% 30.05 in 10.0 mi South 5.8 mph - N/A   Clear
2:35 AM 17.6 °F 10.7 °F 14.0 °F 86% 30.05 in 10.0 mi South 4.6 mph - N/A   Clear
2:55 AM 17.6 °F 9.3 °F 13.8 °F 85% 30.05 in 10.0 mi South 5.8 mph - N/A   Clear
3:15 AM 17.8 °F 10.9 °F 13.8 °F 84% 30.05 in 10.0 mi South 4.6 mph - N/A   Clear
3:35 AM 17.2 °F 10.2 °F 13.5 °F 85% 30.05 in 10.0 mi South 4.6 mph - N/A   Clear
3:55 AM 17.2 °F 10.2 °F 13.8 °F 86% 30.05 in 10.0 mi South 4.6 mph - N/A   Clear
4:15 AM 17.6 °F 9.3 °F 14.0 °F 86% 30.05 in 10.0 mi SSE 5.8 mph - N/A   Clear
4:35 AM 17.2 °F 7.8 °F 13.6 °F 86% 30.05 in 10.0 mi SSE 6.9 mph - N/A   Clear
4:55 AM 17.1 °F 7.6 °F 14.0 °F 88% 30.04 in 10.0 mi South 6.9 mph - N/A   Clear
5:15 AM 17.6 °F 8.2 °F 14.4 °F 87% 30.04 in 10.0 mi South 6.9 mph - N/A   Clear
5:35 AM 18.1 °F 8.9 °F 14.5 °F 86% 30.04 in 10.0 mi South 6.9 mph - N/A   Clear
5:55 AM 18.3 °F 11.5 °F 14.5 °F 85% 30.04 in 10.0 mi South 4.6 mph - N/A   Clear
6:15 AM 18.7 °F 10.6 °F 14.7 °F 85% 30.04 in 10.0 mi SSW 5.8 mph - N/A   Clear
6:35 AM 19.6 °F 11.7 °F 14.7 °F 81% 30.04 in 10.0 mi SSW 5.8 mph - N/A   Clear
6:55 AM 20.7 °F - 14.4 °F 77% 30.05 in 10.0 mi Calm Calm - N/A   Clear
7:15 AM 20.7 °F - 14.0 °F 75% 30.05 in 10.0 mi Calm Calm - N/A   Clear
7:35 AM 20.7 °F 15.8 °F 14.0 °F 75% 30.06 in 10.0 mi SSW 3.5 mph - N/A   Clear
7:55 AM 21.4 °F - 14.2 °F 74% 30.06 in 10.0 mi Calm Calm - N/A   Clear
8:15 AM 22.6 °F - 15.1 °F 73% 30.07 in 10.0 mi Calm Calm - N/A   Clear
8:35 AM 24.1 °F - 15.8 °F 71% 30.07 in 10.0 mi Calm Calm - N/A   Clear
8:55 AM 25.9 °F 20.3 °F 16.5 °F 68% 30.08 in 10.0 mi WSW 4.6 mph - N/A   Clear
9:15 AM 27.7 °F 21.3 °F 16.2 °F 62% 30.08 in 10.0 mi WSW 5.8 mph - N/A   Clear
9:35 AM 29.3 °F 23.2 °F 16.9 °F 60% 30.09 in 10.0 mi WSW 5.8 mph - N/A   Clear
9:55 AM 30.6 °F 24.7 °F 16.7 °F 56% 30.11 in 10.0 mi WSW 5.8 mph - N/A   Clear
10:15 AM 31.6 °F 25.1 °F 16.3 °F 53% 30.11 in 10.0 mi WSW 6.9 mph - N/A   Clear
10:35 AM 32.2 °F 26.7 °F 15.8 °F 51% 30.11 in 10.0 mi SW 5.8 mph - N/A   Clear
10:55 AM 33.4 °F 30.4 °F 16.2 °F 49% 30.11 in 10.0 mi WSW 3.5 mph - N/A   Clear
11:15 AM 34.3 °F 28.4 °F 15.6 °F 46% 30.11 in 10.0 mi West 6.9 mph - N/A   Clear
11:35 AM 35.8 °F 31.9 °F 16.3 °F 45% 30.10 in 10.0 mi SW 4.6 mph - N/A   Clear
11:55 AM 36.7 °F 32.9 °F 16.3 °F 44% 30.10 in 10.0 mi WSW 4.6 mph - N/A   Clear
12:15 PM 37.8 °F 33.3 °F 16.9 °F 43% 30.09 in 10.0 mi WSW 5.8 mph - N/A   Unknown
12:35 PM 38.8 °F 34.6 °F 16.5 °F 40% 30.09 in 10.0 mi SSW 5.8 mph - N/A   Unknown
12:55 PM 39.7 °F 35.6 °F 16.7 °F 39% 30.08 in 10.0 mi SSW 5.8 mph - N/A   Unknown
1:15 PM 40.5 °F 36.5 °F 16.7 °F 38% 30.08 in 10.0 mi WSW 5.8 mph - N/A   Clear
1:35 PM 41.4 °F 36.8 °F 17.4 °F 38% 30.08 in 10.0 mi WSW 6.9 mph - N/A   Clear
1:55 PM 41.7 °F 38.8 °F 18.0 °F 38% 30.08 in 10.0 mi WSW 4.6 mph - N/A   Clear
2:15 PM 42.3 °F 37.9 °F 18.0 °F 38% 30.07 in 10.0 mi WSW 6.9 mph - N/A   Clear
2:35 PM 42.6 °F 39.0 °F 18.1 °F 37% 30.07 in 10.0 mi SW 5.8 mph - N/A   Clear
2:55 PM 42.8 °F 38.0 °F 18.0 °F 37% 30.07 in 10.0 mi WSW 8.1 mph - N/A   Clear
3:15 PM 42.8 °F 40.1 °F 18.1 °F 37% 30.07 in 10.0 mi SW 4.6 mph - N/A   Clear
3:35 PM 42.6 °F 39.0 °F 18.1 °F 37% 30.08 in 10.0 mi West 5.8 mph - N/A   Clear
3:55 PM 42.3 °F 38.6 °F 18.5 °F 39% 30.08 in 10.0 mi SW 5.8 mph - N/A   Clear
4:15 PM 41.7 °F 38.8 °F 18.9 °F 40% 30.08 in 10.0 mi WSW 4.6 mph - N/A   Clear
4:35 PM 40.6 °F 36.7 °F 18.9 °F 42% 30.08 in 10.0 mi WSW 5.8 mph - N/A   Clear
4:55 PM 39.6 °F 37.4 °F 18.9 °F 43% 30.09 in 10.0 mi SW 3.5 mph - N/A   Clear
5:15 PM 38.7 °F 36.3 °F 18.9 °F 45% 30.10 in 10.0 mi SSW 3.5 mph - N/A   Clear
5:35 PM 37.4 °F 34.9 °F 19.4 °F 48% 30.10 in 10.0 mi SSW 3.5 mph - N/A   Clear
5:55 PM 36.5 °F 32.7 °F 19.4 °F 50% 30.11 in 10.0 mi SSW 4.6 mph - N/A   Clear
6:15 PM 35.8 °F - 19.4 °F 51% 30.11 in 10.0 mi Calm Calm - N/A   Clear
6:35 PM 35.4 °F - 19.4 °F 52% 30.12 in 10.0 mi Calm Calm - N/A   Clear
6:55 PM 34.5 °F - 19.4 °F 54% 30.12 in 10.0 mi Calm Calm - N/A   Clear
7:15 PM 33.4 °F 30.4 °F 19.4 °F 56% 30.13 in 10.0 mi SSW 3.5 mph - N/A   Clear
7:35 PM 33.6 °F - 19.4 °F 56% 30.13 in 10.0 mi Calm Calm - N/A   Clear
7:55 PM 33.4 °F 30.4 °F 19.4 °F 56% 30.14 in 10.0 mi South 3.5 mph - N/A   Clear
8:15 PM 32.0 °F 28.7 °F 19.4 °F 60% 30.14 in 10.0 mi SSW 3.5 mph - N/A   Clear
8:35 PM 31.8 °F 27.3 °F 19.4 °F 60% 30.14 in 10.0 mi South 4.6 mph - N/A   Clear
8:55 PM 31.1 °F 26.4 °F 19.4 °F 62% 30.15 in 10.0 mi South 4.6 mph - N/A   Clear
9:15 PM 30.9 °F - 19.4 °F 62% 30.15 in 10.0 mi Calm Calm - N/A   Clear
9:35 PM 30.9 °F 27.5 °F 19.4 °F 62% 30.15 in 10.0 mi South 3.5 mph - N/A   Clear
9:55 PM 30.2 °F 26.7 °F 19.4 °F 64% 30.15 in 10.0 mi South 3.5 mph - N/A   Clear
10:15 PM 30.2 °F 25.4 °F 19.4 °F 64% 30.16 in 10.0 mi South 4.6 mph - N/A   Clear
10:35 PM 29.5 °F 25.9 °F 19.4 °F 66% 30.17 in 10.0 mi South 3.5 mph - N/A   Clear
10:55 PM 29.5 °F 25.9 °F 19.4 °F 66% 30.17 in 10.0 mi South 3.5 mph - N/A   Clear
11:15 PM 29.7 °F 26.1 °F 19.2 °F 65% 30.18 in 10.0 mi South 3.5 mph - N/A   Clear
11:35 PM 29.7 °F 23.7 °F 19.0 °F 65% 30.18 in 10.0 mi South 5.8 mph - N/A   Clear
11:55 PM 28.0 °F 22.8 °F 19.2 °F 70% 30.18 in 10.0 mi South 4.6 mph - N/A   Clear